Torna al catalogo

STARLINK-5753

AttivoComunicazioniVLEO
NORAD 55581·PAYLOAD·🇺🇸 United States

Lanciato Feb 12, 2023 da Cape Canaveral Space Force Station

Loading…

Prossimi Passaggi (prossime 24 ore)

TLE

AggiornatoSource: CelesTrak SupGP

Epoca: Sep 14, 2026, 22:18 UTC

1 55581C 23020N   26257.92965278  .00000876  00000+0  31720-4 0  2575
2 55581  43.0041  23.3648 0001431 274.9580  90.7754 15.27581120    13

Traccia STARLINK-5753 in tempo reale con AllMySat

Download on the App Store